Terug naar catalogus

STARLINK-3161

ActiefCommunicatieVLEO
NORAD 49422·PAYLOAD·🇺🇸 United States

Gelanceerd Nov 13, 2021 vanaf Cape Canaveral Space Force Station

Loading…

Volgende Passages (komende 24 uur)

TLE

VersSource: CelesTrak SupGP

Epoch: Sep 14, 2026, 21:05 UTC

1 49422C 21104Q   26257.87895833 -.00006383  00000+0 -18263-3 0  2573
2 49422  53.1577  87.8726 0001257  83.3076 322.3592 15.35398629    19

Volg STARLINK-3161 in realtime met AllMySat

Download on the App Store